Location: *
(53.9002°N, 27.5624°E)
Time: 18:32:17
(UTC+00:00)

Okean O Rocket - Pass Details

Date: 12 November 2019
Orbit: 622 x 645 km, 98.2° (Epoch: 11 December)

Event Time Altitude Azimuth Distance (km) Brightness Sun altitude
Rises 14:51:48 0° 174° (S) 2,930 5.3 -5.5°
Reaches altitude 10° 14:54:02 10° 178° (S) 2,022 4.5 -5.8°
Maximum altitude 14:58:23 59° 258° (WSW) 737 2.4 -6.4°
Drops below altitude 10° 15:02:45 10° 339° (NNW) 2,024 4.2 -7.0°
Sets 15:04:59 0° 343° (NNW) 2,933 5.0 -7.3°
